Location: USNO
(38.9242°N, 77.0663°W)
Time: 17:44:25
(UTC-04:00)

Tiangong 1 - Pass Details

Date: 09 October 2017
Orbit: 293 x 320 km, 42.8° (Epoch: 20 October)

Event Time Altitude Azimuth Distance (km) Brightness Sun altitude
Rises 19:08:32 0° 269° (W) 2,043 7.5 -6.7°
Reaches altitude 10° 19:10:35 10° 277° (W) 1,209 5.2 -7.1°
Maximum altitude 19:13:10 40° 350° (N) 475 1.6 -7.6°
Drops below altitude 10° 19:15:43 10° 63° (ENE) 1,194 3.0 -8.1°
Enters shadow 19:15:44 10° 63° (ENE) 1,201 3.0 -8.1°
